{"data":{"norad_id":61595,"intl_designator":"2024-188B","name":"ONEWEB-0687","alt_names":[],"object_type":"PAYLOAD","status":"ACTIVE","operator":null,"country":"UK","launch_date":"2024-10-20","launch_site_code":"AFWTR","launch_vehicle":null,"mission":null,"orbit_class":"UNKNOWN","rcs_meters":null,"size_class":null,"mass_kg":null,"dimensions":null,"purposes":["comms"],"wikipedia_slug":null,"has_3d_model":false,"image_url":null,"decayed_at":null,"tle_current":{"epoch":"2026-05-25T03:30:30.841056Z","epoch_age_seconds":55807,"freshness":"FRESH","line1":"1 61595U 24188B   26145.14619029  .00000056  00000+0  11233-3 0  9992","line2":"2 61595  87.9147  10.4601 0002118  96.7946 263.3427 13.17650280 82863","mean_motion":13.1765028,"eccentricity":0.0002118,"inclination_deg":87.9147,"raan_deg":10.4601,"arg_perigee_deg":96.7946,"mean_anomaly_deg":263.3427,"bstar":0.00011233,"rev_number":8286,"period_min":109.28544712183,"perigee_km":1192.104639354,"apogee_km":1195.3120730469,"semimajor_km":7571.8453562004,"source":"CELESTRAK","updated_at":"2026-05-25T13:38:22.747950Z"}}}